DAMPETORP Weather Reports


Display with metric or nautical units.
time (UTC)temp
F
wind
direction
speed
MPH
gust
MPH
rain 1hr
in
rain 24hr
in
rain mn
in
humidity
%
barometer
mb
20260503021532 50 84 0.0 0.0 0.00 0.00 0.00 84 1006.4
20260503020031 50 84 0.0 0.0 0.00 0.00 0.00 86 1006.3
20260503014528 50 84 0.0 0.0 0.00 0.00 0.00 84 1006.4
20260503013027 50 84 0.0 0.0 0.00 0.00 0.00 82 1006.3
20260503011526 50 84 0.0 0.0 0.00 0.00 0.00 81 1006.3
20260503010028 51 84 0.0 0.0 0.00 0.00 0.00 82 1006.4
20260503004523 51 84 0.0 0.0 0.00 0.00 0.00 82 1006.6
20260503003026 51 84 0.0 1.0 0.00 0.00 0.00 80 1006.6
20260503001522 50 84 0.0 0.0 0.00 0.00 0.00 81 1006.6
20260503000020 51 21 0.0 1.0 0.00 0.00 0.00 81 1006.5
20260502234525 51 96 0.0 1.0 0.00 0.00 0.00 81 1006.5
20260502233015 52 102 0.0 0.0 0.00 0.00 0.00 79 1006.4
20260502231512 52 102 0.0 1.0 0.00 0.00 0.00 75 1006.9
20260502230010 53 136 0.0 2.0 0.00 0.00 0.00 72 1006.9
20260502224506 54 151 0.0 3.0 0.00 0.00 0.00 72 1007.1
20260502223002 56 139 0.0 8.0 0.00 0.00 0.00 68 1007.3
20260502221600 57 154 1.0 6.0 0.00 0.00 0.00 64 1007.2
20260502220057 56 94 0.0 1.0 0.00 0.00 0.00 69 1007.0
20260502214556 55 31 0.0 3.0 0.00 0.00 0.00 71 1006.9
20260502213106 54 31 0.0 1.0 0.00 0.00 0.00 72 1006.8
20260502211555 54 26 0.0 0.0 0.00 0.00 0.00 73 1006.8
20260502210054 55 25 0.0 0.0 0.00 0.00 0.00 70 1006.8
20260502204602 56 25 0.0 0.0 0.00 0.00 0.00 68 1006.8
20260502203053 57 25 0.0 1.0 0.00 0.00 0.00 66 1006.9
20260502201552 59 25 0.0 1.0 0.00 0.00 0.00 63 1006.9
20260502200051 61 25 0.0 1.0 0.00 0.00 0.00 58 1007.0
20260502194551 62 44 0.0 5.0 0.00 0.00 0.00 55 1007.0
20260502193053 62 49 0.0 4.0 0.00 0.00 0.00 55 1007.1
20260502191551 63 70 0.0 2.0 0.00 0.00 0.00 54 1007.1
20260502190050 63 56 0.0 2.0 0.00 0.00 0.00 53 1007.0
20260502184556 64 43 0.0 4.0 0.00 0.00 0.00 51 1007.0
20260502183048 65 85 2.0 6.0 0.00 0.00 0.00 49 1006.9
20260502181548 66 54 2.0 7.0 0.00 0.00 0.00 48 1006.9
20260502163044 71 149 1.0 12.0 0.00 0.00 0.00 38 1006.9
20260502161543 72 146 0.0 10.0 0.00 0.00 0.00 35 1006.9
20260502151539 73 44 7.0 15.0 0.00 0.00 0.00 32 1007.5
20260502123020 73 103 4.0 22.0 0.00 0.00 0.00 35 1009.1
20260502121534 72 146 8.0 22.0 0.00 0.00 0.00 35 1009.4
20260502114511 72 157 6.0 16.0 0.00 0.00 0.00 37 1009.7
20260502113008 71 101 8.0 17.0 0.00 0.00 0.00 38 1010.0
20260502111505 70 335 6.0 14.0 0.00 0.00 0.00 42 1010.3
20260502110002 69 328 6.0 13.0 0.00 0.00 0.00 44 1010.6
20260502104558 68 5 6.0 12.0 0.00 0.00 0.00 46 1010.7
20260502103108 67 330 6.0 11.0 0.00 0.00 0.00 48 1011.1
20260502101607 65 41 7.0 14.0 0.00 0.00 0.00 50 1011.3
20260502071518 58 79 3.0 6.0 0.00 0.00 0.00 60 1013.5
20260502070020 57 326 4.0 7.0 0.00 0.00 0.00 61 1013.5
20260502064515 57 323 4.0 6.0 0.00 0.00 0.00 61 1013.7
20260502063021 57 339 3.0 8.0 0.00 0.00 0.00 59 1013.8
20260502061507 56 333 2.0 7.0 0.00 0.00 0.00 60 1014.0
20260502060005 55 48 2.0 6.0 0.00 0.00 0.00 60 1014.0
20260502054503 54 340 2.0 6.0 0.00 0.00 0.00 63 1014.2
20260502053003 53 337 2.0 5.0 0.00 0.00 0.00 66 1014.3
20260502051501 52 331 3.0 6.0 0.00 0.00 0.00 67 1014.3
20260502050101 51 44 2.0 7.0 0.00 0.00 0.00 68 1014.4
20260502044600 51 333 2.0 5.0 0.00 0.00 0.00 69 1014.4
20260502044501 50 355 1.0 6.0 0.00 0.00 0.00 69 1014.4
20260502043107 50 35 0.0 5.0 0.00 0.00 0.00 71 1014.6
20260502041558 49 326 2.0 6.0 0.00 0.00 0.00 72 1014.6
20260502040056 48 51 2.0 6.0 0.00 0.00 0.00 72 1014.7
20260502034555 48 49 0.0 4.0 0.00 0.00 0.00 72 1014.7
20260502033055 48 356 1.0 5.0 0.00 0.00 0.00 72 1014.9
20260502031550 48 20 2.0 5.0 0.00 0.00 0.00 72 1015.0
20260502030052 48 59 2.0 5.0 0.00 0.00 0.00 71 1015.1
20260502024548 49 37 2.0 5.0 0.00 0.00 0.00 70 1015.3
20260502023048 49 40 1.0 4.0 0.00 0.00 0.00 67 1015.4